Location: Robledo de Chavela
(40.5014°N, 4.2377°W)
Time: 10:33:57
(UTC+00:00)

SJ 16-02 - Pass Details

Date: 18 April 2024
Orbit: 595 x 605 km, 75.0° (Epoch: 28 May)

Event Time Altitude Azimuth Distance (km) Brightness Sun altitude
Rises 19:40:02 0° 337° (NNW) 2,846 5.5 -8.1°
Reaches altitude 10° 19:42:17 10° 334° (NNW) 1,939 4.7 -8.5°
Maximum altitude 19:46:31 57° 256° (WSW) 705 2.0 -9.2°
Drops below altitude 10° 19:50:43 10° 178° (S) 1,922 3.6 -10.0°
Sets 19:52:57 0° 174° (S) 2,819 4.4 -10.3°
